Location: Byhalia Creek
(34.8270°N, 89.8040°W)
Time: 17:32:47
(UTC+00:00)

Cosmos 2297 - Pass Details

Date: 22 April 2026
Orbit: 833 x 859 km, 71.0° (Epoch: 9 May)

Event Time Altitude Azimuth Distance (km) Brightness Sun altitude
Rises 03:04:12 0° 343° (NNW) 3,437 7.7 -27.5°
Reaches altitude 10° 03:06:43 10° 348° (NNW) 2,497 6.8 -27.9°
Enters shadow 03:11:37 53° 36° (NE) 1,049 4.1 -28.7°
